EW9530 Weather Reports


Display with metric or nautical units.
time (UTC)temp
F
wind
direction
speed
MPH
gust
MPH
rain 1hr
in
rain 24hr
in
rain mn
in
humidity
%
barometer
mb
20260901194651 75 63 0.0 1.0 0.00 0.00 0.00 73 1019.4
20260901193144 76 63 0.0 0.0 0.00 0.00 0.00 72 1019.3
20260901191653 77 63 0.0 0.0 0.00 0.00 0.00 71 1019.3
20260901190151 77 63 0.0 0.0 0.00 0.00 0.00 70 1018.9
20260901184655 78 63 0.0 1.0 0.00 0.00 0.00 68 1018.8
20260901183142 79 63 0.0 4.0 0.00 0.00 0.00 67 1018.5
20260901181652 79 117 0.0 6.0 0.00 0.00 0.00 67 1018.7
20260901180155 80 75 0.0 4.0 0.00 0.00 0.00 66 1018.8
20260901174652 80 126 2.0 5.0 0.00 0.00 0.00 65 1018.9
20260901173146 81 105 3.0 10.0 0.00 0.00 0.00 64 1018.9
20260901171652 81 130 4.0 10.0 0.00 0.00 0.00 64 1019.2
20260901170152 81 116 5.0 14.0 0.00 0.00 0.00 63 1019.1
20260901164652 82 88 4.0 8.0 0.00 0.00 0.00 61 1019.0
20260901163144 83 139 1.0 8.0 0.00 0.00 0.00 60 1019.2
20260901161654 84 127 3.0 8.0 0.00 0.00 0.00 58 1019.5
20260901160152 85 167 2.0 7.0 0.00 0.00 0.00 57 1019.3
20260901154651 85 178 2.0 8.0 0.00 0.00 0.00 57 1019.1
20260901153144 84 194 4.0 14.0 0.00 0.00 0.00 59 1019.2
20260901151653 84 146 6.0 14.0 0.00 0.00 0.00 57 1019.3
20260901150156 84 94 2.0 12.0 0.00 0.00 0.00 57 1019.1
20260901144651 85 239 3.0 11.0 0.00 0.00 0.00 55 1019.5
20260901143139 86 111 3.0 10.0 0.00 0.00 0.00 54 1019.3
20260901141651 85 191 4.0 10.0 0.00 0.00 0.00 54 1019.6
20260901140152 85 95 1.0 10.0 0.00 0.00 0.00 55 1019.4
20260901134654 85 136 3.0 10.0 0.00 0.00 0.00 55 1019.6
20260901133140 84 189 3.0 8.0 0.00 0.00 0.00 56 1020.1
20260901131656 85 212 4.0 9.0 0.00 0.00 0.00 56 1020.3
20260901130153 85 169 4.0 15.0 0.00 0.00 0.00 56 1020.4
20260901124650 86 188 4.0 10.0 0.00 0.00 0.00 54 1020.5
20260901123141 86 247 3.0 8.0 0.00 0.00 0.00 53 1020.5
20260901121652 87 192 5.0 9.0 0.00 0.00 0.00 53 1020.6
20260901120152 86 169 6.0 15.0 0.00 0.00 0.00 53 1020.7
20260901114651 86 124 7.0 15.0 0.00 0.00 0.00 53 1020.7
20260901113148 86 116 6.0 12.0 0.00 0.00 0.00 53 1020.8
20260901111651 86 163 6.0 18.0 0.00 0.00 0.00 55 1020.9
20260901110152 86 204 5.0 14.0 0.00 0.00 0.00 52 1020.9
20260901103142 85 132 7.0 16.0 0.00 0.00 0.00 54 1021.1
20260901101652 84 170 6.0 14.0 0.00 0.00 0.00 55 1021.2
20260901100148 84 113 4.0 16.0 0.00 0.00 0.00 57 1021.2
20260901094653 83 136 2.0 8.0 0.00 0.00 0.00 57 1021.2
20260901093139 83 95 5.0 9.0 0.00 0.00 0.00 58 1021.1
20260901091653 82 234 1.0 3.0 0.00 0.00 0.00 59 1020.9
20260901090152 81 12 0.0 3.0 0.00 0.00 0.00 62 1021.0
20260901084652 80 12 0.0 2.0 0.00 0.00 0.00 65 1020.9
20260901083141 79 11 1.0 4.0 0.00 0.00 0.00 68 1021.0
20260901081653 77 58 0.0 3.0 0.00 0.00 0.00 72 1021.0
20260901080152 76 37 2.0 4.0 0.00 0.00 0.00 75 1021.0
20260901074652 75 9 1.0 4.0 0.00 0.00 0.00 77 1021.1
20260901073140 74 46 0.0 6.0 0.00 0.00 0.00 81 1021.2
20260901071653 72 11 3.0 7.0 0.00 0.00 0.00 82 1021.2
20260901070153 71 47 1.0 4.0 0.00 0.00 0.00 83 1021.3
20260901064654 70 355 0.0 1.0 0.00 0.00 0.00 84 1021.5
20260901063144 69 355 0.0 0.0 0.00 0.00 0.00 86 1021.4
20260901061653 68 355 0.0 0.0 0.00 0.00 0.00 87 1021.4
20260901060152 67 19 0.0 1.0 0.00 0.00 0.00 88 1021.3
20260901054655 67 19 0.0 2.0 0.00 0.00 0.00 88 1021.1
20260901053143 67 19 0.0 1.0 0.00 0.00 0.00 89 1021.1
20260901051655 67 19 1.0 3.0 0.00 0.00 0.00 88 1021.1
20260901050156 68 19 0.0 2.0 0.00 0.00 0.00 88 1021.0
20260901044654 68 19 1.0 3.0 0.00 0.00 0.00 88 1021.0
20260901043144 68 113 0.0 2.0 0.00 0.00 0.00 88 1021.1
20260901041653 69 113 0.0 0.0 0.00 0.00 0.00 88 1021.0
20260901040150 69 113 0.0 2.0 0.00 0.00 0.00 88 1021.0
20260901034652 70 113 0.0 1.0 0.00 0.00 0.00 87 1021.1
20260901033145 70 113 0.0 0.0 0.00 0.00 0.00 86 1021.2
20260901031652 71 113 0.0 0.0 0.00 0.00 0.00 86 1021.1
20260901030151 72 113 0.0 0.0 0.00 0.00 0.00 85 1021.2
20260901024654 72 113 0.0 0.0 0.00 0.00 0.00 85 1021.3
20260901023144 73 113 0.0 0.0 0.00 0.00 0.00 85 1021.4
20260901021653 73 113 0.0 0.0 0.00 0.00 0.00 84 1021.6
20260901014651 74 113 0.0 3.0 0.00 0.00 0.00 83 1021.9
20260901013143 74 120 0.0 4.0 0.00 0.00 0.00 82 1021.8
20260901011654 75 120 0.0 1.0 0.00 0.00 0.00 82 1021.8
20260901010150 75 159 0.0 1.0 0.00 0.00 0.00 82 1021.9
20260901004652 75 159 1.0 4.0 0.00 0.00 0.00 81 1022.0
20260901003141 75 155 2.0 6.0 0.00 0.00 0.00 81 1022.0
20260901001650 75 145 1.0 6.0 0.00 0.00 0.00 81 1021.9
20260901000157 75 150 1.0 6.0 0.00 0.00 0.00 81 1022.0
20260831234651 75 155 0.0 1.0 0.00 0.00 0.00 82 1022.0
20260831233143 75 155 1.0 3.0 0.00 0.00 0.00 82 1022.0
20260831231651 75 111 0.0 3.0 0.00 0.00 0.00 82 1022.0
20260831230150 75 103 0.0 3.0 0.00 0.00 0.00 82 1021.8
20260831224651 75 146 1.0 3.0 0.00 0.00 0.00 80 1021.7
20260831223142 76 130 0.0 4.0 0.00 0.00 0.00 79 1021.7
20260831221655 76 192 1.0 5.0 0.00 0.00 0.00 78 1021.5
20260831220154 76 142 2.0 5.0 0.00 0.00 0.00 77 1021.7
20260831214652 76 162 2.0 5.0 0.00 0.00 0.00 77 1021.6
20260831213142 76 168 3.0 7.0 0.00 0.00 0.00 76 1021.6
20260831211651 77 161 4.0 9.0 0.00 0.00 0.00 76 1021.4
20260831210152 77 201 2.0 8.0 0.00 0.00 0.00 75 1021.4
20260831204652 77 136 2.0 10.0 0.00 0.00 0.00 74 1021.2
20260831203141 77 95 1.0 8.0 0.00 0.00 0.00 74 1021.2
20260831201652 77 148 2.0 11.0 0.00 0.00 0.00 74 1021.0
20260831200152 77 47 2.0 10.0 0.00 0.00 0.00 74 1020.8